Weather History for Lakehurst NAS, NJ

Change the Weather History Date:

Saturday, April 13, 2013

  Actual Average Record
Temperature  
Mean Temperature 56 °F -  
Max Temperature 46 °F 57 °F 82 °F (2014)
Min Temperature 42 °F 41 °F 32 °F (2012)
Degree Days  
Heating Degree Days 9    
Growing Degree Days 6 (Base 50)    
Moisture  
Dew Point 42 °F    
Average Humidity 71    
Maximum Humidity 100    
Minimum Humidity 27    
Precipitation  
Precipitation 0.00 in - - ()
Sea Level Pressure  
Sea Level Pressure 29.85 in    
Wind  
Wind Speed 4 mph (NW)    
Max Wind Speed 12 mph    
Max Gust Speed 23 mph    
Averages and records for this station are not official NWS values.
T = Trace of Precipitation, MM = Missing Value Source: NWS Daily Summary

Daily Weather History Graph

Daily Weather History Graph

Search for Another Location

Airport:

Trip Planner

Search our weather history database for the weather conditions in past years. The results will help you decide how hot, cold, wet, or windy it might be!

Date:

Astronomy

Apr. 13, 2013 Rise Set
Actual Time 6:22 AM EDT 7:34 PM EDT
Civil Twilight 5:54 AM EDT 8:02 PM EDT
Nautical Twilight 5:20 AM EDT 8:35 PM EDT
Astronomical Twilight 4:46 AM EDT 9:10 PM EDT
Moon 8:11 AM EDT (4/13) 10:55 PM EDT (4/13)
Length of Visible Light 14h 07m
Length of Day
13h 11m
Waxing Crescent, 10% of the Moon is Illuminated
Apr 13
Waxing Crescent
Apr 18
First Quarter
Apr 25
Full
May 2
Last Quarter
May 9
New

Hourly Weather History & Observations

Time (EDT) Temp. Windchill Dew Point Humidity Pressure Visibility Wind Dir Wind Speed Gust Speed Precip Events Conditions
12:00 AM 48.0 °F - 46.9 °F 96% 29.72 in - NNE 3.5 mph - N/A Rain Rain
12:30 AM 46.4 °F 44.3 °F 46.4 °F 100% 29.73 in - Variable 4.6 mph - N/A Rain Light Rain
12:47 AM 48.2 °F - 46.4 °F 93% 29.76 in - NNW 4.6 mph - N/A   Overcast
1:00 AM 46.0 °F - 46.0 °F 100% 29.74 in - Calm Calm - N/A   Overcast
2:00 AM 48.9 °F - 46.9 °F 93% 29.77 in - NNW 4.6 mph - N/A   Overcast
3:00 AM 46.9 °F - 46.9 °F 100% 29.78 in - Variable 4.6 mph - N/A   Overcast
3:35 AM 46.4 °F 45.2 °F - N/A% 29.80 in - North 3.5 mph - N/A   Overcast
3:43 AM - - - N/A% - - North - - N/A   Unknown
4:00 AM 46.9 °F - 46.9 °F 100% 29.81 in - Calm Calm - N/A   Overcast
4:10 AM 48.2 °F - - N/A% 29.82 in - Calm Calm - N/A   Overcast
5:00 AM 44.6 °F - 44.6 °F 100% 29.83 in - Calm Calm - N/A   Overcast
5:06 AM 45.0 °F - 45.0 °F 100% 29.83 in - Calm Calm - N/A   Overcast
5:37 AM 44.6 °F - 44.6 °F 100% 29.83 in - Calm Calm - N/A   Scattered Clouds
6:00 AM 46.0 °F - 41.0 °F 83% 29.83 in - Calm Calm - N/A   Partly Cloudy
6:45 AM 48.2 °F - 39.2 °F 71% 29.86 in - WNW 3.5 mph - N/A   Mostly Cloudy
7:00 AM 43.0 °F - 41.0 °F 93% 29.86 in - Calm Calm - N/A   Mostly Cloudy
7:06 AM 42.8 °F - 42.8 °F 100% 29.87 in - Calm Calm - N/A   Scattered Clouds
8:00 AM 52.0 °F - 46.0 °F 80% 29.88 in - Calm Calm - N/A   Clear
9:00 AM 59.0 °F - 44.1 °F 58% 29.90 in - Variable 3.5 mph - N/A   Clear
10:00 AM 63.0 °F - 41.0 °F 45% 29.91 in - WNW 9.2 mph - N/A   Partly Cloudy
11:00 AM 62.1 °F - 37.0 °F 39% 29.91 in - WNW 10.4 mph 17.3 mph N/A   Mostly Cloudy
12:00 PM 61.0 °F - 34.0 °F 36% 29.90 in - NW 9.2 mph - N/A   Overcast
1:00 PM 68.0 °F - 35.1 °F 30% 29.89 in - Variable 6.9 mph - N/A   Mostly Cloudy
2:00 PM 68.0 °F - 35.1 °F 30% 29.88 in - West 8.1 mph 16.1 mph N/A   Mostly Cloudy
3:22 PM - - - N/A% - - North - - N/A   Unknown
4:00 PM 68.0 °F - 33.1 °F 27% 29.88 in - West 10.4 mph - N/A   Overcast
5:00 PM 69.1 °F - 34.0 °F 27% 29.88 in - WNW 9.2 mph 23.0 mph N/A   Mostly Cloudy
6:00 PM 70.0 °F - 34.0 °F 27% 29.89 in - West 11.5 mph - N/A   Scattered Clouds
7:00 PM 62.1 °F - 36.0 °F 38% 29.89 in - NW 3.5 mph - N/A   Clear
8:22 PM - - - N/A% - - North - - N/A   Unknown
9:00 PM 57.9 °F - 45.0 °F 62% 29.92 in - ESE 3.5 mph - N/A   Clear
10:00 PM 46.9 °F - 43.0 °F 86% 29.94 in - Calm Calm - N/A   Clear
11:00 PM 46.9 °F - 43.0 °F 86% 29.97 in - Calm Calm - N/A   Overcast